Terug naar catalogus

STARLINK-35869

ActiefCommunicatieVLEO
NORAD 66353·PAYLOAD·🇺🇸 United States

Gelanceerd Nov 6, 2025 vanaf Vandenberg Space Force Base

Loading…

Volgende Passages (komende 24 uur)

TLE

VersSource: CelesTrak SupGP

Epoch: Sep 15, 2026, 02:59 UTC

1 66353C 25254F   26258.12479167 -.00024486  00000+0 -72361-3 0  2586
2 66353  53.1577  70.6527 0001203  88.0423 347.1396 15.34395759    16

Volg STARLINK-35869 in realtime met AllMySat

Download on the App Store